| time (UTC) | temp F | wind direction | speed knots | gust knots | rain 1hr in | rain 24hr in | rain mn in | humidity % | barometer mb |
| 20260504110344 | 41 | 135 | 0.0 | 0.0 | 0.00 | 0.00 | 0.00 | 74 | 1015.0 |
| 20260504100344 | 38 | 0 | 0.0 | 0.0 | 0.00 | 0.00 | 0.00 | 78 | 1015.0 |
| 20260504081846 | 46 | 263 | 5.2 | 9.6 | 0.00 | 0.00 | 0.00 | 60 | 1015.0 |
| 20260504081346 | 46 | 271 | 6.1 | 9.6 | 0.00 | 0.00 | 0.00 | 59 | 1015.0 |
| 20260504080845 | 46 | 273 | 6.1 | 8.7 | 0.00 | 0.00 | 0.00 | 60 | 1015.0 |
| 20260504080344 | 47 | 269 | 7.8 | 12.2 | 0.00 | 0.00 | 0.00 | 60 | 1015.0 |
| 20260504070345 | 42 | 96 | 0.9 | 1.7 | 0.00 | 0.00 | 0.00 | 72 | 1015.0 |
| 20260504050344 | 44 | 266 | 6.1 | 7.8 | 0.00 | 0.00 | 0.00 | 63 | 1015.0 |
| 20260504045845 | 43 | 268 | 4.3 | 7.0 | 0.00 | 0.00 | 0.00 | 69 | 1015.0 |
| 20260504045344 | 42 | 266 | 1.7 | 6.1 | 0.00 | 0.00 | 0.00 | 72 | 1015.0 |
| 20260504044844 | 42 | 67 | 0.0 | 0.9 | 0.00 | 0.00 | 0.00 | 74 | 1015.0 |
| 20260504044344 | 42 | 138 | 0.0 | 0.9 | 0.00 | 0.00 | 0.00 | 73 | 1015.0 |
| 20260504043844 | 42 | 84 | 0.0 | 1.7 | 0.00 | 0.00 | 0.00 | 73 | 1015.0 |
| 20260504043344 | 43 | 0 | 0.0 | 0.0 | 0.00 | 0.00 | 0.00 | 73 | 1015.0 |
| 20260504042844 | 43 | 113 | 0.0 | 1.7 | 0.00 | 0.00 | 0.00 | 71 | 1015.0 |
| 20260504042344 | 43 | 163 | 0.9 | 2.6 | 0.00 | 0.00 | 0.00 | 70 | 1015.0 |
| 20260504041844 | 42 | 196 | 3.5 | 7.0 | 0.00 | 0.00 | 0.00 | 70 | 1014.0 |
| 20260504041348 | 41 | 123 | 0.9 | 1.7 | 0.00 | 0.00 | 0.00 | 73 | 1014.0 |
| 20260504040844 | 41 | 95 | 0.0 | 2.6 | 0.00 | 0.00 | 0.00 | 76 | 1014.0 |
| 20260504040344 | 40 | 61 | 0.0 | 1.7 | 0.00 | 0.00 | 0.00 | 78 | 1014.0 |
| 20260504035844 | 40 | 111 | 0.0 | 1.7 | 0.00 | 0.00 | 0.00 | 78 | 1014.0 |
| 20260504035348 | 40 | 52 | 0.0 | 0.9 | 0.00 | 0.00 | 0.00 | 79 | 1014.0 |
| 20260504034844 | 40 | 67 | 0.9 | 1.7 | 0.00 | 0.00 | 0.00 | 80 | 1014.0 |
| 20260504034344 | 40 | 95 | 1.7 | 2.6 | 0.00 | 0.00 | 0.00 | 82 | 1014.0 |
| 20260504033844 | 40 | 59 | 0.0 | 1.7 | 0.00 | 0.00 | 0.00 | 83 | 1014.0 |
| 20260504033345 | 40 | 0 | 0.0 | 0.0 | 0.00 | 0.00 | 0.00 | 82 | 1014.0 |
| 20260504032844 | 40 | 0 | 0.0 | 0.0 | 0.00 | 0.00 | 0.00 | 81 | 1014.0 |
| 20260504032344 | 40 | 101 | 0.0 | 0.9 | 0.00 | 0.00 | 0.00 | 81 | 1014.0 |
| 20260504031844 | 40 | 77 | 0.0 | 0.9 | 0.00 | 0.00 | 0.00 | 82 | 1014.0 |
| 20260504031344 | 40 | 0 | 0.0 | 0.0 | 0.00 | 0.00 | 0.00 | 81 | 1014.0 |
| 20260504030844 | 41 | 0 | 0.0 | 0.0 | 0.00 | 0.00 | 0.00 | 81 | 1014.0 |
| 20260504030344 | 41 | 226 | 0.0 | 0.9 | 0.00 | 0.00 | 0.00 | 80 | 1014.0 |
| 20260504025844 | 41 | 133 | 0.0 | 0.0 | 0.00 | 0.00 | 0.00 | 79 | 1014.0 |
| 20260504025344 | 41 | 133 | 0.0 | 0.9 | 0.00 | 0.00 | 0.00 | 79 | 1014.0 |
| 20260504024845 | 41 | 147 | 0.0 | 0.9 | 0.00 | 0.00 | 0.00 | 79 | 1014.0 |
| 20260504024344 | 42 | 77 | 0.0 | 0.9 | 0.00 | 0.00 | 0.00 | 79 | 1014.0 |
| 20260504023844 | 42 | 53 | 0.0 | 1.7 | 0.00 | 0.00 | 0.00 | 78 | 1014.0 |
| 20260504023344 | 42 | 69 | 0.0 | 0.0 | 0.00 | 0.00 | 0.00 | 77 | 1014.0 |
| 20260504022844 | 42 | 225 | 0.9 | 2.6 | 0.00 | 0.00 | 0.00 | 77 | 1014.0 |
| 20260504022344 | 42 | 160 | 0.9 | 1.7 | 0.00 | 0.00 | 0.00 | 76 | 1014.0 |
| 20260504021844 | 42 | 227 | 0.9 | 1.7 | 0.00 | 0.00 | 0.00 | 77 | 1014.0 |
| 20260504021345 | 42 | 109 | 0.0 | 0.0 | 0.00 | 0.00 | 0.00 | 76 | 1014.0 |
| 20260504020844 | 43 | 76 | 0.0 | 0.9 | 0.00 | 0.00 | 0.00 | 75 | 1014.0 |
| 20260504020344 | 43 | 64 | 0.0 | 0.9 | 0.00 | 0.00 | 0.00 | 74 | 1014.0 |
| 20260504015844 | 43 | 0 | 0.0 | 0.0 | 0.00 | 0.00 | 0.00 | 72 | 1014.0 |
| 20260504015344 | 44 | 69 | 0.0 | 0.9 | 0.00 | 0.00 | 0.00 | 71 | 1014.0 |
| 20260504014845 | 44 | 0 | 0.0 | 0.0 | 0.00 | 0.00 | 0.00 | 69 | 1014.0 |
| 20260504014344 | 45 | 0 | 0.0 | 0.0 | 0.00 | 0.00 | 0.00 | 68 | 1014.0 |
| 20260504013844 | 45 | 125 | 0.0 | 0.9 | 0.00 | 0.00 | 0.00 | 68 | 1014.0 |
| 20260504013344 | 46 | 1 | 0.0 | 0.9 | 0.00 | 0.00 | 0.00 | 65 | 1014.0 |
| 20260504012844 | 46 | 91 | 0.0 | 0.9 | 0.00 | 0.00 | 0.00 | 64 | 1014.0 |
| 20260504012344 | 47 | 85 | 0.0 | 0.9 | 0.00 | 0.00 | 0.00 | 63 | 1014.0 |
| 20260504011844 | 47 | 98 | 0.0 | 0.9 | 0.00 | 0.00 | 0.00 | 61 | 1014.0 |
| 20260504011344 | 48 | 74 | 0.0 | 0.9 | 0.00 | 0.00 | 0.00 | 61 | 1014.0 |
| 20260504010844 | 49 | 240 | 1.7 | 3.5 | 0.00 | 0.00 | 0.00 | 58 | 1014.0 |
| 20260504010344 | 50 | 150 | 0.0 | 1.7 | 0.00 | 0.00 | 0.00 | 55 | 1014.0 |
| 20260504005844 | 50 | 246 | 4.3 | 7.0 | 0.00 | 0.00 | 0.00 | 54 | 1014.0 |
| 20260504005344 | 51 | 262 | 5.2 | 8.7 | 0.00 | 0.00 | 0.00 | 52 | 1014.0 |
| 20260504004844 | 51 | 259 | 4.3 | 6.1 | 0.00 | 0.00 | 0.00 | 53 | 1014.0 |
| 20260504004344 | 51 | 223 | 1.7 | 3.5 | 0.00 | 0.00 | 0.00 | 52 | 1014.0 |
| 20260504003844 | 52 | 254 | 4.3 | 7.0 | 0.00 | 0.00 | 0.00 | 50 | 1014.0 |
| 20260504003344 | 52 | 263 | 2.6 | 5.2 | 0.00 | 0.00 | 0.00 | 51 | 1013.0 |
| 20260504002844 | 52 | 261 | 4.3 | 7.8 | 0.00 | 0.00 | 0.00 | 49 | 1013.0 |
| 20260504002344 | 53 | 253 | 3.5 | 5.2 | 0.00 | 0.00 | 0.00 | 48 | 1013.0 |
| 20260504001844 | 54 | 256 | 4.3 | 5.2 | 0.00 | 0.00 | 0.00 | 47 | 1013.0 |
| 20260504001345 | 54 | 266 | 5.2 | 8.7 | 0.00 | 0.00 | 0.00 | 45 | 1013.0 |
| 20260504000844 | 54 | 265 | 4.3 | 7.0 | 0.00 | 0.00 | 0.00 | 44 | 1013.0 |
| 20260504000346 | 55 | 224 | 2.6 | 3.5 | 0.00 | 0.00 | 0.00 | 46 | 1013.0 |
| 20260503235844 | 55 | 257 | 3.5 | 6.1 | 0.00 | 0.00 | 0.00 | 43 | 1013.0 |
| 20260503235344 | 55 | 264 | 2.6 | 5.2 | 0.00 | 0.00 | 0.00 | 43 | 1013.0 |
| 20260503234844 | 56 | 268 | 2.6 | 4.3 | 0.00 | 0.00 | 0.00 | 42 | 1013.0 |
| 20260503234344 | 56 | 260 | 2.6 | 5.2 | 0.00 | 0.00 | 0.00 | 42 | 1013.0 |
| 20260503233844 | 56 | 273 | 7.0 | 9.6 | 0.00 | 0.00 | 0.00 | 41 | 1013.0 |
| 20260503233344 | 56 | 217 | 2.6 | 4.3 | 0.00 | 0.00 | 0.00 | 43 | 1013.0 |
| 20260503232844 | 56 | 257 | 4.3 | 7.0 | 0.00 | 0.00 | 0.00 | 42 | 1013.0 |
| 20260503232344 | 56 | 255 | 3.5 | 7.0 | 0.00 | 0.00 | 0.00 | 42 | 1013.0 |
| 20260503231844 | 57 | 258 | 4.3 | 7.8 | 0.00 | 0.00 | 0.00 | 40 | 1013.0 |
| 20260503231344 | 57 | 282 | 7.8 | 10.4 | 0.00 | 0.00 | 0.00 | 40 | 1013.0 |
| 20260503230844 | 57 | 279 | 6.1 | 9.6 | 0.00 | 0.00 | 0.00 | 41 | 1013.0 |
| 20260503230344 | 57 | 276 | 6.1 | 9.6 | 0.00 | 0.00 | 0.00 | 40 | 1013.0 |
| 20260503225844 | 57 | 222 | 4.3 | 7.8 | 0.00 | 0.00 | 0.00 | 40 | 1013.0 |
| 20260503225344 | 58 | 239 | 7.0 | 8.7 | 0.00 | 0.00 | 0.00 | 39 | 1013.0 |
| 20260503224845 | 58 | 215 | 2.6 | 7.0 | 0.00 | 0.00 | 0.00 | 40 | 1013.0 |
| 20260503224344 | 58 | 267 | 7.8 | 10.4 | 0.00 | 0.00 | 0.00 | 39 | 1013.0 |
| 20260503223844 | 58 | 243 | 5.2 | 8.7 | 0.00 | 0.00 | 0.00 | 40 | 1013.0 |
| 20260503223344 | 58 | 216 | 4.3 | 10.4 | 0.00 | 0.00 | 0.00 | 39 | 1013.0 |
| 20260503222844 | 59 | 280 | 4.3 | 11.3 | 0.00 | 0.00 | 0.00 | 38 | 1013.0 |
| 20260503222344 | 59 | 242 | 4.3 | 7.8 | 0.00 | 0.00 | 0.00 | 38 | 1013.0 |
| 20260503221845 | 59 | 235 | 3.5 | 9.6 | 0.00 | 0.00 | 0.00 | 37 | 1013.0 |
| 20260503221344 | 59 | 261 | 6.1 | 10.4 | 0.00 | 0.00 | 0.00 | 37 | 1013.0 |
| 20260503220844 | 59 | 245 | 4.3 | 7.8 | 0.00 | 0.00 | 0.00 | 38 | 1013.0 |
| 20260503220345 | 59 | 241 | 5.2 | 7.8 | 0.00 | 0.00 | 0.00 | 37 | 1013.0 |
| 20260503215844 | 59 | 266 | 4.3 | 10.4 | 0.00 | 0.00 | 0.00 | 38 | 1013.0 |
| 20260503215344 | 59 | 248 | 5.2 | 7.8 | 0.00 | 0.00 | 0.00 | 38 | 1013.0 |
| 20260503214845 | 59 | 265 | 11.3 | 16.5 | 0.00 | 0.00 | 0.00 | 37 | 1013.0 |
| 20260503214344 | 59 | 266 | 9.6 | 14.8 | 0.00 | 0.00 | 0.00 | 38 | 1013.0 |
| 20260503213844 | 59 | 260 | 7.0 | 16.5 | 0.00 | 0.00 | 0.00 | 37 | 1013.0 |
| 20260503213347 | 60 | 256 | 7.8 | 11.3 | 0.00 | 0.00 | 0.00 | 37 | 1013.0 |
| 20260503212844 | 60 | 23 | 2.6 | 7.0 | 0.00 | 0.00 | 0.00 | 36 | 1013.0 |
| 20260503212344 | 59 | 235 | 3.5 | 7.8 | 0.00 | 0.00 | 0.00 | 37 | 1013.0 |
| 20260503211845 | 59 | 251 | 6.1 | 10.4 | 0.00 | 0.00 | 0.00 | 38 | 1013.0 |
| 20260503211344 | 59 | 260 | 9.6 | 13.0 | 0.00 | 0.00 | 0.00 | 37 | 1013.0 |
| 20260503210844 | 60 | 249 | 7.0 | 12.2 | 0.00 | 0.00 | 0.00 | 38 | 1013.0 |
| 20260503210344 | 59 | 242 | 2.6 | 6.1 | 0.00 | 0.00 | 0.00 | 38 | 1013.0 |
| 20260503205844 | 58 | 215 | 4.3 | 7.8 | 0.00 | 0.00 | 0.00 | 37 | 1013.0 |
| 20260503205344 | 58 | 259 | 6.1 | 9.6 | 0.00 | 0.00 | 0.00 | 37 | 1013.0 |
| 20260503204844 | 59 | 250 | 6.1 | 13.0 | 0.00 | 0.00 | 0.00 | 37 | 1013.0 |
| 20260503204344 | 59 | 246 | 4.3 | 9.6 | 0.00 | 0.00 | 0.00 | 39 | 1013.0 |
| 20260503203844 | 59 | 350 | 2.6 | 6.1 | 0.00 | 0.00 | 0.00 | 39 | 1013.0 |
| 20260503203344 | 59 | 198 | 2.6 | 7.0 | 0.00 | 0.00 | 0.00 | 37 | 1013.0 |
| 20260503202844 | 60 | 243 | 3.5 | 7.8 | 0.00 | 0.00 | 0.00 | 38 | 1013.0 |
| 20260503202344 | 60 | 242 | 4.3 | 7.8 | 0.00 | 0.00 | 0.00 | 40 | 1013.0 |
| 20260503201845 | 59 | 247 | 5.2 | 11.3 | 0.00 | 0.00 | 0.00 | 37 | 1013.0 |
| 20260503201344 | 59 | 245 | 3.5 | 7.0 | 0.00 | 0.00 | 0.00 | 39 | 1013.0 |
| 20260503200844 | 58 | 232 | 5.2 | 9.6 | 0.00 | 0.00 | 0.00 | 39 | 1013.0 |
| 20260503200344 | 58 | 266 | 8.7 | 12.2 | 0.00 | 0.00 | 0.00 | 39 | 1013.0 |
| 20260503195844 | 58 | 244 | 4.3 | 8.7 | 0.00 | 0.00 | 0.00 | 38 | 1013.0 |
| 20260503195344 | 58 | 236 | 3.5 | 7.8 | 0.00 | 0.00 | 0.00 | 41 | 1013.0 |
| 20260503194846 | 58 | 228 | 6.1 | 13.0 | 0.00 | 0.00 | 0.00 | 38 | 1013.0 |
| 20260503194344 | 58 | 284 | 4.3 | 11.3 | 0.00 | 0.00 | 0.00 | 41 | 1013.0 |
| 20260503193844 | 58 | 231 | 5.2 | 11.3 | 0.00 | 0.00 | 0.00 | 41 | 1013.0 |
| 20260503193344 | 58 | 243 | 6.1 | 9.6 | 0.00 | 0.00 | 0.00 | 39 | 1013.0 |
| 20260503192844 | 58 | 282 | 3.5 | 14.8 | 0.00 | 0.00 | 0.00 | 40 | 1013.0 |
| 20260503191845 | 56 | 164 | 3.5 | 5.2 | 0.00 | 0.00 | 0.00 | 42 | 1013.0 |
| 20260503191344 | 56 | 214 | 2.6 | 5.2 | 0.00 | 0.00 | 0.00 | 40 | 1014.0 |
| 20260503190844 | 57 | 227 | 3.5 | 7.0 | 0.00 | 0.00 | 0.00 | 39 | 1014.0 |
| 20260503190344 | 57 | 54 | 2.6 | 7.8 | 0.00 | 0.00 | 0.00 | 40 | 1014.0 |
| 20260503185844 | 56 | 212 | 3.5 | 5.2 | 0.00 | 0.00 | 0.00 | 39 | 1014.0 |
| 20260503185345 | 57 | 245 | 3.5 | 5.2 | 0.00 | 0.00 | 0.00 | 40 | 1014.0 |
| 20260503184845 | 57 | 183 | 1.7 | 5.2 | 0.00 | 0.00 | 0.00 | 40 | 1014.0 |
| 20260503184344 | 56 | 266 | 7.0 | 16.5 | 0.00 | 0.00 | 0.00 | 39 | 1014.0 |
| 20260503183845 | 57 | 274 | 6.1 | 11.3 | 0.00 | 0.00 | 0.00 | 40 | 1014.0 |
| 20260503183345 | 57 | 169 | 4.3 | 7.0 | 0.00 | 0.00 | 0.00 | 39 | 1014.0 |
| 20260503182844 | 56 | 261 | 6.1 | 11.3 | 0.00 | 0.00 | 0.00 | 42 | 1014.0 |
| 20260503182344 | 56 | 248 | 5.2 | 10.4 | 0.00 | 0.00 | 0.00 | 39 | 1014.0 |
| 20260503181844 | 55 | 228 | 3.5 | 11.3 | 0.00 | 0.00 | 0.00 | 39 | 1014.0 |
| 20260503181345 | 55 | 245 | 4.3 | 7.8 | 0.00 | 0.00 | 0.00 | 40 | 1014.0 |
| 20260503180844 | 56 | 256 | 4.3 | 10.4 | 0.00 | 0.00 | 0.00 | 43 | 1014.0 |
| 20260503180344 | 56 | 255 | 7.8 | 15.6 | 0.00 | 0.00 | 0.00 | 40 | 1014.0 |
| 20260503175844 | 56 | 253 | 4.3 | 8.7 | 0.00 | 0.00 | 0.00 | 41 | 1014.0 |
| 20260503175344 | 56 | 259 | 6.1 | 11.3 | 0.00 | 0.00 | 0.00 | 40 | 1014.0 |
| 20260503174846 | 56 | 238 | 5.2 | 9.6 | 0.00 | 0.00 | 0.00 | 42 | 1014.0 |
| 20260503174344 | 56 | 191 | 2.6 | 6.1 | 0.00 | 0.00 | 0.00 | 45 | 1014.0 |
| 20260503173845 | 55 | 248 | 5.2 | 9.6 | 0.00 | 0.00 | 0.00 | 40 | 1014.0 |
| 20260503173344 | 55 | 266 | 6.1 | 9.6 | 0.00 | 0.00 | 0.00 | 41 | 1014.0 |
| 20260503172844 | 54 | 193 | 3.5 | 5.2 | 0.00 | 0.00 | 0.00 | 39 | 1014.0 |
| 20260503172344 | 54 | 225 | 3.5 | 7.8 | 0.00 | 0.00 | 0.00 | 41 | 1014.0 |
| 20260503171844 | 55 | 212 | 5.2 | 7.0 | 0.00 | 0.00 | 0.00 | 40 | 1014.0 |
| 20260503171344 | 55 | 258 | 3.5 | 8.7 | 0.00 | 0.00 | 0.00 | 43 | 1014.0 |
| 20260503170844 | 54 | 237 | 7.0 | 12.2 | 0.00 | 0.00 | 0.00 | 40 | 1014.0 |
| 20260503170344 | 54 | 272 | 5.2 | 10.4 | 0.00 | 0.00 | 0.00 | 41 | 1014.0 |
| 20260503150845 | 50 | 264 | 7.8 | 16.5 | 0.00 | 0.00 | 0.00 | 50 | 1015.0 |
| 20260503150344 | 51 | 194 | 3.5 | 7.8 | 0.00 | 0.00 | 0.00 | 50 | 1015.0 |
| 20260503131345 | 48 | 236 | 5.2 | 10.4 | 0.00 | 0.00 | 0.00 | 58 | 1015.0 |
| 20260503130844 | 48 | 198 | 5.2 | 9.6 | 0.00 | 0.00 | 0.00 | 58 | 1015.0 |
| 20260503130345 | 48 | 75 | 4.3 | 7.0 | 0.00 | 0.00 | 0.00 | 57 | 1015.0 |